Weather in Ivashkovo

Russia / Ryazan Oblast     54°51′29″N   39°24′37″E
temp.,
°C
wind,
m/s
gust,
m/s
humid.,
%
clouds,
%
prec.,
mm/h
press.,
hPa
HPBL,
m
17 may, mon
mon1700:00+14ne228060 0.0 101411
03:00+13ene33868 0.0 101435
06:00+15e268889 0.3 1014152
09:00+20e58765 0.3 1014479
12:00+24ese686526 0.0 1013803
15:00+26se5966100 0.0 10121369
18:00+23se5117265 0.0 1012385
21:00+18ese41384100 0.0 1012236
18 may, tue
tue1800:00+16ese4138714 0.0 1011227
03:00+15ese514790 0.0 1011262
06:00+15ese513785 0.0 1011273
09:00+20se6136990 0.0 1011486
12:00+24se6116147 0.0 1011710
15:00+26se611595 0.0 10101002
18:00+23ese7156590 0.0 1009521
21:00+20ese617757 0.0 1009423
19 may, wed
wed1900:00+18se616685 0.0 1009399
03:00+15se411765 0.0 1009210
06:00+15ese38845 0.0 1009196
09:00+20se5768100 0.0 1009493
12:00+23se61064100 0.0 1009805
15:00+25se51163100 0.0 10091146
18:00+23ese487469 0.0 1008340
21:00+19se399099 2.9 1008152
20 may, thu
thu2000:00+17ese51193100 1.6 1008227
03:00+16ese388918 2.6 1007132
06:00+16ese5138992 1.1 1007391
09:00+20sse7107937 1.2 10071058
12:00+18sse7108597 0.7 1008887
15:00+17s812785 2.1 10101260
18:00+17ssw59766 0.3 1011835
21:00+14sse488873 0.3 1012134
21 may, fri
fri2100:00+13ssw4109553 0.0 1012241
03:00+11ssw4109621 0.0 1014284
06:00+12sw41291100 0.0 1016531
09:00+16wsw577277 0.0 1017712
12:00+16wsw4677100 0.1 1019879
15:00+18sw467397 0.5 10191254
18:00+19wsw3676100 0.5 1018613
21:00+15sw2285100 0.7 101918